星链-30263 (STARLINK-30263 )

导读

STARLINK-30263是美国太空探索技术公司(SpaceX)星链互联网卫星项目中的一颗卫星,于北京时间2023年8月17日发射入轨,隶属于星链卫星星座组网部署批次,主要服务于全球范围内低延迟高速卫星互联网接入,进一步扩充了星链星座的在轨卫星规模与覆盖能力。

Basic Information
目录编号:
57642
目录名称:
STARLINK-30263
国际标识:
2023-122L
轨道中心:
EARTH
卫星名称:
星链-30263
卫星全名:
星链-30263 (STARLINK-30263 )
卫星状态:
在轨 (已飞行1036 天)
发射日期:
2023-08-17 UTC
国别 :
美国 (US)
星等 :
--
Orbit Information
数据来源 国际轨道数据
星历时间: 2026-06-16T20:15:52+0800
2天前
查看轨道信息
半长轴: 6861.195km
偏心率: 0.0001088
轨道倾角: 43.004°
近地点辐角 236.648°
升交点赤经 254.136°
平近点角 123.427°
近地点: 482.311km
远地点: 483.805km
周期: 94.267分钟
每日圈数: 15.275771
Detailed Information
固有亮度:
5
最大亮度:
0.3
卫星平台:
Starlink v2.0 mini
覆盖范围:
全球
运营商:
太空探索技术公司
运营商所在国:
美国
制造商(研发单位):
太空探索技术公司
制造商所在国:
美国
使用方式:
暂无
Satellite Introduction
星链(Starlink)计划是由太空探索技术公司(SpaceX)提出的一个巨型低轨卫星互联网星座项目,计划在2019年至2024年间在太空搭建由约1.2万颗卫星组成的“星链”网络,其中1584颗将部署在地球上空550千米处的近地轨道,并从2020年开始工作。该卫星仍在工作。
2D Orbit Map
3D Orbit Map
Orbit Altitude Analysis Chart
Orbit Inclination Analysis Chart
Orbit Comprehensive Analysis Chart
View Comprehensive Chart